SCP
0 0 0 0 0 1 1 1 1 1 0 0 0 0 0 1 1 1 1 1 1 1 1 1 1 0 0 1 1 1 1 1 1 1 2 2 2 2 2 2 2 2 1
1 1 1 1 1 1 1 1 1 1 1 1 1 1 1 1 1 1 2 2 2 2 2 2 2 1 1 1 1 1 1 1 2 2 2 2 2 2 2 2 2 2 2
1 1 1 1 1 1 1 1 1 1 1 1 2 2 2 2 2 2 2 2 2 2 2 3 3 2 2 1 1 1 1 2 2 2 2 1 2 2 2 2 2 2 2
1 1 1 2 2 2 2 2 2 2 2 3 3 3 3 3 3 3 3 2 2 2 2 3 3 3 2 2 1 1 1 2 2 2 2 1 1 1 2 2 2 2 2
1 2 2 2 3 3 3 3 3 4 4 4 4 3 3 3 3 3 3 2 2 2 2 3 3 3 3 3 2 1 1 1 2 2 1 1 1 1 1 2 2 2 2
3 3 3 3 4 5 5 4 4 5 5 5 4 3 3 2 2 2 2 2 2 2 2 2 2 3 3 3 2 2 1 1 1 1 1 1 1 1 1 1 1 1 1
4 4 3 4 5 5 5 5 4 4 5 4 3 2 2 2 2 2 2 1 1 1 1 1 2 2 2 3 3 2 2 1 1 1 1 1 1 1 1 1 1 1 1
4 4 4 4 5 5 5 5 4 4 3 3 3 2 2 1 1 1 1 1 1 1 1 1 1 2 2 2 2 3 2 2 1 1 1 1 1 1 1 1 0 0 0
3 4 4 4 4 5 5 5 4 4 3 3 3 2 2 1 1 1 1 1 1 1 1 1 1 2 2 2 2 3 3 2 2 1 1 1 1 1 0 0 0 0 0
3 3 3 4 4 4 4 4 4 4 3 3 2 2 1 1 1 1 1 1 1 1 1 1 1 1 2 2 2 3 3 3 3 2 2 1 1 1 0 0 0 0 0
2 2 3 3 3 3 3 3 3 3 2 2 1 1 1 1 1 1 0 0 0 1 1 1 1 1 2 2 2 3 3 4 4 3 2 1 1 0 0 0 0 0 0
2 2 2 2 2 2 2 2 2 2 1 1 1 1 0 0 0 0 0 0 0 0 1 1 1 1 1 1 2 3 3 4 3 2 2 1 0 0 0 0 0 0 0
1 1 1 1 2 2 1 1 1 1 1 1 0 0 0 0 0 0 0 0 0 0 0 1 1 1 1 1 1 2 3 2 2 1 1 0 0 0 0 0 0 0 0
0 1 1 1 1 1 1 1 0 0 0 0 0 0 0 0 0 0 0 0 0 0 0 0 0 0 0 0 1 1 1 1 1 0 0 0 0 0 0 0 0 0 0
1 1 1 1 0 0 0 0 0 0 0 0 0 0 0 0 0 0 0 0 0 0 0 0 0 0 0 0 0 0 0 0 0 0 0 0 0 0 0 0 0 0 0
1 0 0 0 0 0 0 0 0 0 0 0 0 0 0 0 0 0 0 0 0 0 0 0 0 0 0 0 0 0 0 0 0 0 0 0 0 0 0 0 0 0 0
0 0 0 0 0 0 0 0 0 0 0 0 0 0 0 0 0 0 0 0 0 0 0 0 0 0 0 0 0 0 0 0 0 0 0 0 0 0 0 0 0 0 0
0 0 0 0 0 0 0 0 0 0 0 0 0 0 0 0 0 0 0 0 0 0 0 0 0 0 0 0 0 0 0 0 0 0 0 0 0 0 0 0 0 0 0
0 0 0 0 0 0 0 0 0 0 0 0 0 0 0 0 0 0 0 0 0 0 0 0 0 0 0 0 0 0 0 0 0 0 0 0 0 0 0 0 0 0 0
0 0 0 0 0 0 0 0 0 0 0 0 0 0 0 0 0 0 0 0 0 0 0 0 0 0 0 0 0 0 0 0 0 0 0 0 0 0 0 0 0 0 0
0 0 0 0 0 0 0 0 0 0 0 0 0 0 0 0 0 0 0 0 0 0 0 0 0 0 0 0 0 0 0 0 0 0 0 0 0 0 0 0 0 0 0
0 0 0 0 0 0 0 0 0 0 0 0 0 0 0 0 0 0 0 0 0 0 0 0 0 0 0 0 0 0 0 0 0 0 0 0 0 0 0 0 0 0 0
0 0 0 0 0 0 0 0 0 0 0 0 0 0 0 0 0 0 0 0 0 0 0 0 0 0 0 0 0 0 0 0 0 0 0 0 0 0 0 0 0 0 0
0 0 0 0 0 0 0 0 0 0 0 0 0 0 0 0 0 0 0 0 0 0 0 0 0 0 0 0 0 0 0 0 0 0 0 0 0 0 0 0 0 0 0
0 0 0 0 0 0 0 0 0 0 0 0 0 0 0 0 0 0 0 0 0 0 0 0 0 0 0 0 0 0 0 0 0 0 0 0 0 0 0 0 0 0 0
0 0 0 0 0 0 0 0 0 0 0 0 0 0 0 0 0 0 0 0 0 0 0 0 0 0 0 0 0 0 0 0 0 0 0 0 0 0 0 0 0 0 0
Wind_Speed
0 2 2 2 2 2 4 2 3 0 2 5 5 5 4 4 4 4 2 12 13 13 14 14 14 13 13 12 11 10 9 9 7 7 7 7 8 8 9 11 13 14 15
3 2 1 1 3 2 4 3 5 3 3 4 5 6 5 5 5 4 4 4 10 14 17 17 17 16 15 13 12 11 10 10 9 8 7 7 7 7 9 11 12 13 14
3 2 2 1 2 2 1 2 6 4 5 6 5 6 5 5 5 5 4 4 6 12 18 19 17 17 16 15 14 13 12 11 10 9 9 9 9 8 7 8 10 12 14
1 3 4 2 2 1 2 4 4 4 5 4 4 4 5 5 7 7 6 6 6 8 8 14 18 18 18 18 17 17 16 14 12 10 10 10 10 10 8 8 8 9 11
3 2 4 4 3 2 3 5 3 3 4 5 6 6 5 5 5 8 7 9 9 7 6 9 18 22 21 21 21 20 19 17 15 12 12 11 10 11 10 9 9 9 10
3 3 4 5 5 4 3 4 5 4 4 5 9 9 6 6 7 8 9 8 7 10 11 10 6 11 20 22 22 22 21 19 17 15 15 13 11 11 10 10 11 11 12
6 5 5 6 5 4 5 6 5 6 5 5 7 7 7 7 7 6 7 8 9 9 6 5 3 4 6 18 22 22 20 19 18 18 17 16 12 10 10 11 12 14 14
6 5 5 5 5 5 6 5 6 5 7 7 7 8 10 8 7 9 6 6 7 6 7 9 7 6 4 3 7 17 19 18 19 20 20 17 12 11 12 14 16 18 18
4 4 4 4 4 5 5 7 7 7 7 7 6 8 11 13 8 6 8 8 7 7 7 8 9 8 6 5 4 7 11 10 14 16 19 16 12 12 15 18 19 20 21
6 6 6 5 4 4 6 8 8 8 9 10 8 7 8 10 12 12 7 6 8 9 8 7 7 8 7 5 5 6 6 5 9 14 17 16 13 13 16 19 21 22 23
8 8 7 5 5 5 7 8 8 8 8 10 11 9 10 10 11 12 14 8 7 6 6 6 5 5 5 3 3 6 9 8 4 3 4 8 11 13 16 20 23 24 25
7 9 8 7 7 6 7 8 8 10 9 10 9 8 9 10 10 10 13 12 10 9 9 7 6 6 7 7 10 11 6 3 7 6 4 5 8 12 16 20 24 26 26
7 7 9 7 7 7 7 7 8 8 8 8 7 6 6 7 8 8 10 11 12 11 11 9 8 7 8 6 7 14 5 7 8 6 5 6 9 14 18 21 24 27 27
8 9 9 9 9 8 9 7 8 8 7 7 9 8 6 7 6 6 6 8 10 8 8 10 7 7 6 5 7 11 0 6 7 6 5 7 11 15 19 22 25 27 29
9 10 9 8 7 7 7 7 6 7 7 7 7 8 7 6 6 6 6 6 7 9 9 7 7 7 6 6 7 5 1 6 7 7 8 10 13 17 20 24 26 28 29
8 9 9 7 7 7 7 7 7 6 7 6 6 7 7 5 5 5 6 6 7 9 8 4 7 8 8 10 11 3 2 8 8 8 9 12 15 18 22 25 28 29 30
8 9 9 8 8 8 7 6 7 8 8 7 8 8 9 8 6 5 5 6 7 7 10 7 6 7 8 7 3 2 3 3 3 8 11 14 18 21 24 27 29 29 29
8 8 8 8 8 8 7 8 10 10 11 11 11 10 10 9 7 6 6 8 7 7 9 11 7 5 7 6 3 3 3 3 2 8 12 16 21 24 27 30 29 25 24
7 8 8 8 8 8 8 9 10 11 12 12 12 11 11 9 8 7 8 8 7 8 7 9 8 5 4 3 2 4 5 3 4 7 10 14 20 26 31 35 19 12 16
6 6 7 8 9 9 11 12 13 13 13 13 12 11 10 7 7 8 8 8 8 9 8 8 8 5 4 2 3 3 4 4 5 6 8 11 18 26 32 32 7 15 20
8 7 6 6 7 6 9 13 14 15 15 14 12 9 8 11 13 10 10 9 10 9 9 8 7 6 4 3 3 4 5 5 5 4 4 8 10 13 19 24 18 28 32
7 6 6 6 6 5 7 14 17 16 15 13 11 8 8 9 14 18 20 21 20 15 11 9 7 6 5 4 5 6 6 3 3 3 4 8 9 12 14 15 26 34 37
7 6 5 4 5 3 5 11 21 17 14 11 10 8 8 10 13 12 18 23 20 21 20 12 8 6 5 5 8 7 5 4 4 2 2 7 8 11 11 17 31 34 37
6 5 5 4 5 6 8 12 21 15 13 11 10 7 7 10 11 15 16 16 15 13 10 8 6 5 6 9 8 9 11 10 8 6 4 6 7 9 11 12 26 31 33
6 6 5 5 6 7 11 14 20 14 11 14 12 8 8 10 16 19 16 15 14 7 1 5 6 9 15 17 15 12 10 10 9 5 4 6 7 8 10 10 18 30 31
6 7 6 5 7 8 11 14 19 12 12 12 12 9 10 13 18 17 13 12 11 5 5 7 10 14 14 14 13 10 9 10 9 6 4 5 6 4 8 8 8 11 16
Wind_Direction
177 66 27 7 305 138 168 235 287 337 290 283 268 275 287 304 292 271 167 199 209 209 216 222 228 234 240 248 255 261 267 271 277 285 292 296 294 284 271 259 252 246 242
59 54 332 315 321 3 37 359 317 302 269 268 289 289 288 281 274 272 265 240 220 224 226 226 227 228 231 237 245 253 258 260 264 270 280 291 301 306 296 278 264 253 246
55 347 279 212 274 345 23 273 275 279 270 265 261 268 273 271 287 290 290 279 262 247 235 228 226 227 228 231 236 244 249 250 253 262 273 282 290 295 306 305 288 270 254
7 324 307 281 270 312 298 269 255 263 271 290 299 303 308 303 291 280 274 273 275 278 259 229 226 229 228 230 231 236 240 242 246 253 264 275 283 289 294 301 308 301 279
305 299 303 309 313 281 272 286 324 339 325 325 313 297 283 281 293 298 293 284 275 267 269 249 228 226 225 228 231 233 235 236 241 249 259 268 277 285 290 296 302 304 304
325 335 313 338 332 320 328 343 334 320 304 292 288 285 285 279 269 262 265 271 275 272 264 254 243 224 223 229 233 235 236 237 242 247 255 263 273 282 287 292 297 299 298
19 6 344 342 339 344 343 326 322 315 302 289 288 284 271 268 277 275 268 265 264 266 277 277 267 258 224 228 233 238 241 248 255 254 253 259 268 278 286 292 295 296 294
355 349 5 331 346 338 318 327 336 315 304 304 300 298 297 290 279 284 287 290 300 315 308 297 284 258 255 246 232 230 233 246 255 255 254 258 260 270 281 288 291 291 291
321 339 322 324 339 327 324 339 313 313 315 308 295 294 294 291 291 288 289 288 288 285 279 272 265 260 242 237 242 235 238 251 267 274 270 267 256 261 277 286 288 287 286
349 338 326 328 337 333 323 318 337 333 315 306 301 294 292 305 308 302 282 278 283 281 275 276 277 267 249 233 238 252 273 284 277 277 278 278 276 276 283 287 286 284 281
339 326 322 345 0 337 327 332 326 324 315 305 304 306 308 306 299 291 293 295 289 286 291 296 312 308 301 278 257 252 255 252 241 263 300 300 294 291 288 286 284 281 278
319 319 338 360 345 334 333 330 325 316 313 313 314 311 308 307 307 306 304 308 306 310 317 330 331 332 339 341 328 334 318 77 93 82 46 337 307 295 288 284 281 279 275
315 333 346 339 335 335 330 328 323 315 311 311 312 307 305 303 304 306 305 305 306 306 309 313 318 324 324 340 349 356 24 89 92 80 46 348 316 301 291 284 279 275 272
330 339 342 341 337 332 323 318 306 297 297 298 295 293 292 291 291 288 286 293 294 290 290 294 304 310 317 320 330 333 281 124 111 81 34 349 325 311 300 289 280 273 267
326 337 332 324 322 318 312 307 296 295 294 291 293 292 286 280 278 277 275 274 281 288 286 283 289 292 295 294 308 315 212 131 99 58 22 353 334 318 305 293 282 272 263
327 318 314 314 314 310 303 302 300 294 295 291 286 282 282 281 282 279 277 274 270 276 280 268 278 283 287 290 303 313 126 119 83 54 21 358 341 326 314 301 286 271 258
322 319 317 311 308 303 303 305 304 305 309 304 297 292 289 283 276 277 284 279 270 267 277 278 273 279 277 282 285 109 105 95 67 37 15 357 346 334 322 309 290 270 251
323 320 314 314 320 330 341 354 352 346 332 320 312 304 299 293 277 278 278 276 270 263 271 279 277 273 273 276 209 146 114 88 49 25 11 357 349 340 330 319 295 263 233
324 327 334 343 346 350 7 5 349 336 323 312 306 300 297 292 281 279 279 277 271 269 263 274 277 262 258 248 171 120 92 64 44 24 14 358 352 349 342 330 298 224 184
336 343 348 357 358 7 16 358 345 330 319 311 301 292 289 289 290 294 295 292 290 284 271 268 270 258 238 199 141 125 100 67 49 31 20 8 2 1 351 343 36 119 126
338 339 350 1 359 9 15 357 343 330 319 311 310 315 326 325 320 316 308 301 295 285 275 262 259 251 221 175 148 127 116 104 66 29 24 21 11 7 356 357 52 92 98
334 337 348 359 358 11 4 352 350 330 315 312 321 327 328 329 324 316 310 306 298 287 274 257 247 237 203 154 134 136 134 133 96 22 37 40 28 25 7 13 49 77 88
330 329 340 356 355 40 5 349 349 331 316 319 323 324 332 329 323 316 311 306 298 286 270 251 237 219 173 147 141 131 111 93 92 83 53 56 38 41 23 32 51 67 80
325 326 332 350 354 23 12 356 348 330 322 323 321 326 336 328 324 323 313 307 304 293 267 228 213 187 144 137 130 121 116 103 82 53 43 73 54 50 42 41 54 66 76
328 330 336 351 1 13 18 4 354 331 330 329 321 326 342 331 327 326 320 316 317 321 338 160 152 133 129 129 129 124 123 115 100 71 44 83 85 74 60 57 61 70 77
332 332 338 6 19 14 17 10 353 336 333 327 319 329 341 336 330 329 326 322 324 356 72 90 99 105 113 119 119 123 128 125 118 100 76 97 113 101 80 64 66 67 73